Weather in Side

Turkey     36°45′58″N   31°23′06″E
temp.,
°C
wind,
m/s
gust,
m/s
humid.,
%
clouds,
%
prec.,
mm/h
press.,
hPa
HPBL,
m
25 february, thu
thu2500:00+13ne33460 0.0 102366
03:00+13nne44472 0.0 102383
06:00+12ne344771 0.0 102383
09:00+12nne455235 0.0 1025146
12:00+17n243612 0.0 1025848
15:00+18nne13367 0.0 1024930
18:00+16nne23490 0.0 1025171
21:00+12nne55500 0.0 1026139
26 february, fri
fri2600:00+11nne44520 0.0 1028104
03:00+10nne44540 0.0 1027107
06:00+9nne33530 0.0 1027103
09:00+11nne33500 0.0 1026118
12:00+16sw21380 0.0 1025333
15:00+16s22420 0.0 1023328
18:00+15s22530 0.0 1022145
21:00+12e11550 0.0 1022120
27 february, sat
sat2700:00+12ene23530 0.0 1022124
03:00+11ne22470 0.0 1021100
06:00+10nne22440 0.0 102076
09:00+13ne22420 0.0 102096
12:00+16s22390 0.0 1019385
15:00+16s33510 0.0 1016489
18:00+16sse22670 0.0 1016306
21:00+13ene11740 0.0 1016324
28 february, sun
sun2800:00+12ne22770 0.0 101695
03:00+11ne12750 0.0 101680
06:00+11nne11740 0.0 101584
09:00+14ene11620 0.0 1016106
12:00+16ssw21610 0.0 1015484
15:00+16ssw33630 0.0 1014574
18:00+16s22650 0.0 1014412
21:00+13n01740 0.0 1016388
1 march, mon
mon100:00+12nne11770 0.0 101789
03:00+12nne227833 0.7 101867
06:00+11ne5670100 0.6 1018274
09:00+11ne4671100 2.9 1019340
12:00+14nw234393 0.0 1019883
15:00+17n343675 0.0 10181361
18:00+15nne34460 0.0 1018507
21:00+11nne55510 0.0 1021177